| time (UTC) | temp F | wind direction | speed MPH | gust MPH | rain 1hr in | rain 24hr in | rain mn in | humidity % | barometer mb |
| 20260504023305 | 60 | 5 | 1.0 | 2.0 | 0.00 | 0.01 | 0.00 | 96 | 1012.5 |
| 20260504022805 | 60 | 5 | 1.0 | 3.0 | 0.00 | 0.01 | 0.00 | 96 | 1012.6 |
| 20260504022305 | 60 | 313 | 1.0 | 2.0 | 0.00 | 0.01 | 0.00 | 96 | 1012.5 |
| 20260504021305 | 60 | 313 | 0.0 | 1.0 | 0.00 | 0.01 | 0.00 | 96 | 1012.2 |
| 20260504014305 | 61 | 79 | 2.0 | 3.0 | 0.00 | 0.01 | 0.00 | 96 | 1012.8 |
| 20260504013805 | 61 | 76 | 2.0 | 3.0 | 0.00 | 0.01 | 0.00 | 96 | 1012.6 |
| 20260504013304 | 61 | 37 | 1.0 | 3.0 | 0.00 | 0.01 | 0.00 | 96 | 1012.6 |
| 20260504012805 | 61 | 88 | 2.0 | 3.0 | 0.00 | 0.01 | 0.00 | 96 | 1012.8 |
| 20260504011305 | 61 | 19 | 0.0 | 0.0 | 0.00 | 0.01 | 0.00 | 96 | 1012.9 |
| 20260504010805 | 61 | 19 | 0.0 | 0.0 | 0.00 | 0.01 | 0.00 | 96 | 1012.9 |
| 20260504002304 | 61 | 19 | 1.0 | 2.0 | 0.00 | 0.01 | 0.00 | 96 | 1013.3 |
| 20260504001805 | 61 | 19 | 1.0 | 2.0 | 0.00 | 0.01 | 0.00 | 96 | 1013.4 |
| 20260503235805 | 61 | 100 | 0.0 | 0.0 | 0.00 | 0.01 | 0.00 | 96 | 1013.3 |
| 20260503235305 | 61 | 100 | 0.0 | 0.0 | 0.00 | 0.01 | 0.00 | 96 | 1013.7 |
| 20260503234804 | 61 | 100 | 0.0 | 1.0 | 0.00 | 0.01 | 0.00 | 96 | 1013.4 |
| 20260503234305 | 61 | 100 | 1.0 | 3.0 | 0.00 | 0.01 | 0.00 | 96 | 1013.5 |
| 20260503233805 | 61 | 65 | 1.0 | 2.0 | 0.00 | 0.01 | 0.00 | 96 | 1013.5 |
| 20260503233304 | 61 | 65 | 0.0 | 1.0 | 0.00 | 0.01 | 0.00 | 96 | 1013.6 |
| 20260503232804 | 61 | 65 | 0.0 | 1.0 | 0.00 | 0.01 | 0.00 | 96 | 1013.5 |
| 20260503232305 | 61 | 65 | 0.0 | 1.0 | 0.00 | 0.01 | 0.00 | 96 | 1013.4 |
| 20260503231805 | 61 | 65 | 1.0 | 2.0 | 0.00 | 0.01 | 0.00 | 96 | 1013.5 |
| 20260503231304 | 61 | 71 | 1.0 | 3.0 | 0.00 | 0.01 | 0.00 | 96 | 1013.6 |
| 20260503230805 | 61 | 89 | 2.0 | 3.0 | 0.00 | 0.01 | 0.00 | 96 | 1013.5 |
| 20260503222804 | 61 | 85 | 1.0 | 3.0 | 0.00 | 0.01 | 0.01 | 96 | 1013.6 |
| 20260503222304 | 61 | 79 | 2.0 | 3.0 | 0.00 | 0.01 | 0.01 | 96 | 1013.5 |
| 20260503221305 | 61 | 95 | 1.0 | 3.0 | 0.00 | 0.01 | 0.01 | 96 | 1013.6 |
| 20260503220805 | 61 | 95 | 2.0 | 3.0 | 0.00 | 0.01 | 0.01 | 96 | 1013.3 |
| 20260503220304 | 61 | 80 | 1.0 | 3.0 | 0.00 | 0.01 | 0.01 | 96 | 1013.7 |
| 20260503212804 | 60 | 69 | 1.0 | 2.0 | 0.00 | 0.01 | 0.01 | 96 | 1013.1 |
| 20260503212305 | 60 | 69 | 2.0 | 3.0 | 0.00 | 0.01 | 0.01 | 96 | 1012.9 |
| 20260503210804 | 60 | 150 | 1.0 | 2.0 | 0.00 | 0.01 | 0.01 | 96 | 1013.1 |
| 20260503202804 | 61 | 150 | 1.0 | 3.0 | 0.00 | 0.01 | 0.01 | 96 | 1012.8 |
| 20260503195805 | 60 | 93 | 2.0 | 3.0 | 0.00 | 0.01 | 0.01 | 96 | 1012.7 |
| 20260503195305 | 60 | 79 | 2.0 | 3.0 | 0.00 | 0.01 | 0.01 | 96 | 1012.7 |
| 20260503194805 | 60 | 109 | 1.0 | 3.0 | 0.00 | 0.01 | 0.01 | 96 | 1012.5 |
| 20260503194304 | 60 | 109 | 2.0 | 3.0 | 0.00 | 0.01 | 0.01 | 96 | 1012.5 |
| 20260503193805 | 61 | 116 | 1.0 | 2.0 | 0.00 | 0.01 | 0.01 | 96 | 1012.4 |
| 20260503193304 | 61 | 129 | 1.0 | 2.0 | 0.00 | 0.01 | 0.01 | 96 | 1012.4 |
| 20260503192805 | 61 | 165 | 1.0 | 3.0 | 0.00 | 0.01 | 0.01 | 96 | 1012.2 |
| 20260503191304 | 61 | 207 | 2.0 | 3.0 | 0.00 | 0.01 | 0.01 | 96 | 1012.4 |
| 20260503190805 | 61 | 141 | 2.0 | 3.0 | 0.00 | 0.01 | 0.01 | 96 | 1012.3 |
| 20260503190304 | 61 | 164 | 2.0 | 3.0 | 0.00 | 0.01 | 0.01 | 96 | 1012.4 |
| 20260503185805 | 61 | 163 | 2.0 | 3.0 | 0.00 | 0.01 | 0.01 | 96 | 1012.1 |
| 20260503185305 | 61 | 201 | 2.0 | 3.0 | 0.00 | 0.01 | 0.01 | 95 | 1012.0 |
| 20260503184304 | 61 | 126 | 1.0 | 3.0 | 0.00 | 0.01 | 0.01 | 95 | 1012.0 |
| 20260503183805 | 61 | 114 | 2.0 | 3.0 | 0.00 | 0.01 | 0.01 | 95 | 1012.3 |
| 20260503175804 | 61 | 153 | 1.0 | 2.0 | 0.00 | 0.01 | 0.01 | 96 | 1012.3 |
| 20260503175305 | 61 | 89 | 1.0 | 2.0 | 0.00 | 0.01 | 0.01 | 96 | 1012.3 |
| 20260503174804 | 61 | 101 | 1.0 | 2.0 | 0.00 | 0.01 | 0.01 | 95 | 1012.4 |
| 20260503174305 | 61 | 101 | 1.0 | 2.0 | 0.00 | 0.01 | 0.01 | 96 | 1012.1 |
| 20260503173804 | 61 | 101 | 1.0 | 3.0 | 0.00 | 0.01 | 0.01 | 96 | 1012.5 |
| 20260503173305 | 61 | 78 | 1.0 | 2.0 | 0.00 | 0.01 | 0.01 | 96 | 1012.5 |
| 20260503171304 | 61 | 132 | 0.0 | 2.0 | 0.00 | 0.01 | 0.01 | 95 | 1012.3 |
| 20260503170805 | 61 | 140 | 1.0 | 3.0 | 0.00 | 0.01 | 0.01 | 95 | 1012.5 |
| 20260503170304 | 61 | 144 | 2.0 | 3.0 | 0.00 | 0.01 | 0.01 | 96 | 1012.5 |
| 20260503150305 | 63 | 0 | 0.0 | 0.0 | 0.00 | 0.01 | 0.01 | 92 | 1012.9 |
| 20260503131305 | 63 | 120 | 1.0 | 3.0 | 0.00 | 0.01 | 0.01 | 92 | 1013.7 |
| 20260503130805 | 62 | 107 | 0.0 | 3.0 | 0.00 | 0.01 | 0.01 | 93 | 1013.7 |
| 20260503130305 | 62 | 174 | 2.0 | 3.0 | 0.00 | 0.01 | 0.01 | 93 | 1013.7 |
| 20260503110305 | 61 | 118 | 2.0 | 3.0 | 0.00 | 0.01 | 0.01 | 94 | 1014.1 |
| 20260503080805 | 62 | 128 | 3.0 | 6.0 | 0.00 | 0.00 | 0.00 | 86 | 1013.6 |
| 20260503072806 | 60 | 123 | 2.0 | 3.0 | 0.00 | 0.00 | 0.00 | 87 | 1013.6 |
| 20260503060305 | 60 | 82 | 0.0 | 1.0 | 0.00 | 0.00 | 0.00 | 86 | 1013.0 |
| 20260503054805 | 60 | 82 | 0.0 | 1.0 | 0.00 | 0.00 | 0.00 | 86 | 1013.1 |
| 20260503054305 | 60 | 82 | 0.0 | 2.0 | 0.00 | 0.00 | 0.00 | 86 | 1013.1 |
| 20260503053805 | 60 | 82 | 1.0 | 2.0 | 0.00 | 0.00 | 0.00 | 86 | 1013.0 |
| 20260503053305 | 60 | 82 | 1.0 | 2.0 | 0.00 | 0.00 | 0.00 | 86 | 1012.8 |
| 20260503052805 | 60 | 82 | 0.0 | 0.0 | 0.00 | 0.00 | 0.00 | 86 | 1013.2 |
| 20260503050805 | 60 | 82 | 0.0 | 0.0 | 0.00 | 0.00 | 0.00 | 85 | 1012.9 |
| 20260503045805 | 60 | 82 | 0.0 | 0.0 | 0.00 | 0.00 | 0.00 | 85 | 1013.1 |
| 20260503045305 | 60 | 82 | 0.0 | 0.0 | 0.00 | 0.00 | 0.00 | 85 | 1013.3 |
| 20260503035805 | 60 | 96 | 1.0 | 2.0 | 0.00 | 0.00 | 0.00 | 83 | 1013.3 |
| 20260503035305 | 60 | 96 | 1.0 | 2.0 | 0.00 | 0.00 | 0.00 | 83 | 1012.7 |
| 20260503034805 | 60 | 96 | 1.0 | 3.0 | 0.00 | 0.00 | 0.00 | 83 | 1013.4 |
| 20260503032805 | 60 | 167 | 1.0 | 2.0 | 0.00 | 0.00 | 0.00 | 82 | 1012.9 |
| 20260503032305 | 60 | 86 | 1.0 | 3.0 | 0.00 | 0.00 | 0.00 | 82 | 1013.2 |
| 20260503030305 | 60 | 44 | 2.0 | 3.0 | 0.00 | 0.00 | 0.00 | 83 | 1013.0 |
| 20260503025805 | 60 | 50 | 2.0 | 5.0 | 0.00 | 0.00 | 0.00 | 83 | 1013.6 |
| 20260503025305 | 60 | 36 | 1.0 | 3.0 | 0.00 | 0.00 | 0.00 | 82 | 1013.6 |
| 20260503024805 | 60 | 37 | 1.0 | 3.0 | 0.00 | 0.00 | 0.00 | 82 | 1013.1 |
| 20260503024304 | 60 | 85 | 1.0 | 2.0 | 0.00 | 0.00 | 0.00 | 82 | 1013.7 |